Wind_Speed
20 20 21 21 23 24 25 26 27 28 28 27 26 25 24 21 17 14 15 18 22 25 27 29 31 34 37 39 41 42 43 44 44 44 44 43 44 45 48 51 55 60 64 66 67 69 69 66 64 64 63 64 67 68 69 70 70 70 70 68 67 66 65
21 21 22 23 24 25 25 26 27 27 27 27 25 24 24 22 17 13 11 12 15 19 22 24 26 29 31 33 35 36 37 38 39 41 42 43 44 45 46 48 52 55 59 62 63 66 70 70 69 67 65 63 64 65 67 69 71 71 71 70 69 68 67
22 22 23 24 25 25 25 26 26 26 27 26 25 23 23 23 20 15 11 9 9 12 15 17 19 21 23 25 27 28 30 32 34 36 39 41 43 45 45 46 50 52 55 59 61 62 65 69 71 72 70 67 65 64 64 66 69 70 71 72 71 70 70
24 23 24 24 25 25 25 25 25 25 26 26 25 23 21 21 20 17 13 10 9 9 11 13 14 16 17 19 21 22 24 26 29 32 35 38 41 43 45 46 48 50 52 56 59 61 62 64 67 71 72 70 68 66 65 65 67 68 70 71 72 72 72
25 24 24 24 25 25 25 24 23 24 25 26 24 22 20 20 18 16 14 12 11 10 11 12 13 15 17 18 18 19 20 22 24 28 31 35 38 40 43 45 46 48 50 53 56 58 60 62 64 66 69 70 68 67 66 65 66 67 68 70 72 73 73
26 26 25 24 25 25 25 23 22 23 24 25 23 20 19 19 17 15 13 12 11 11 12 13 15 16 18 18 18 18 19 20 22 24 27 30 33 36 39 42 43 45 47 50 53 55 56 59 61 62 64 66 65 66 66 65 64 65 66 68 70 72 73
28 27 26 25 24 24 24 22 21 23 24 24 22 19 17 17 17 15 13 11 10 11 12 13 15 17 19 20 20 21 21 22 22 22 23 25 28 31 35 38 40 41 43 45 48 52 54 56 57 59 61 61 61 62 64 64 64 64 65 65 67 69 70
28 27 27 26 24 23 23 21 21 23 24 23 20 17 15 16 16 15 13 12 10 10 11 12 13 16 18 19 21 22 23 24 24 23 22 22 23 26 30 34 36 38 40 43 46 50 54 56 57 58 57 57 57 58 60 61 62 63 64 64 65 67 68
28 27 27 25 24 22 21 21 21 23 23 21 19 16 15 15 16 16 14 13 11 10 9 10 11 13 15 17 19 21 23 25 25 25 24 23 23 24 26 29 32 35 38 41 44 47 50 54 56 55 52 50 50 50 51 52 54 58 61 62 63 65 65
28 28 26 24 22 21 20 20 21 22 22 20 18 16 16 15 16 17 16 14 13 11 10 10 10 11 12 14 15 17 19 22 24 25 25 25 26 25 25 26 28 30 33 36 39 41 43 46 48 47 45 44 42 42 43 45 47 51 54 55 57 59 60
28 28 27 24 22 20 20 20 21 21 21 20 19 18 17 15 15 16 18 17 15 13 12 12 11 10 11 12 13 14 16 18 20 22 24 26 27 28 28 28 27 27 29 31 33 35 36 38 39 39 40 39 35 33 37 40 42 44 46 48 50 52 53
28 28 28 25 22 20 19 20 20 21 20 20 19 19 18 16 14 14 16 18 18 16 14 14 13 11 11 11 12 13 14 15 16 18 20 23 25 27 29 30 30 30 30 31 32 33 33 34 34 36 39 37 30 26 28 32 35 38 40 43 44 47 48
28 27 27 26 22 19 19 19 20 20 19 18 18 18 18 16 14 12 12 14 17 18 17 16 16 14 13 12 13 13 13 14 15 16 18 19 22 24 26 28 30 31 32 34 35 36 35 34 34 35 37 34 28 23 23 25 27 30 34 38 40 42 42
27 27 26 26 22 19 18 20 20 19 18 17 15 14 14 14 13 12 11 11 13 15 17 18 19 19 16 15 15 14 14 15 15 16 17 18 19 20 22 25 28 30 32 35 37 37 36 34 35 35 35 31 27 23 23 23 23 24 28 31 33 34 35
26 26 26 25 22 18 18 19 20 18 16 15 14 12 11 13 15 13 12 12 12 13 15 18 20 22 20 19 18 17 16 16 16 17 18 18 18 18 20 22 25 27 30 33 36 36 35 34 34 35 34 30 27 24 24 24 23 22 22 24 26 29 31
25 25 25 24 22 18 17 19 20 18 16 15 14 11 10 14 18 17 14 13 14 14 15 16 19 22 22 22 21 19 18 17 17 18 18 17 16 17 19 21 22 25 28 31 33 34 34 32 32 32 32 31 28 26 25 24 23 22 21 23 25 28 30
24 24 23 23 21 17 16 18 19 18 17 16 14 12 13 16 19 19 17 15 15 16 17 17 18 20 22 23 22 20 18 17 18 17 15 14 14 16 18 19 20 24 27 28 30 32 32 31 30 31 33 32 30 28 25 24 23 22 22 24 25 28 29
23 23 22 22 21 18 16 17 18 18 17 16 15 16 18 18 19 19 18 17 17 18 18 18 18 19 21 22 21 20 19 19 19 17 14 12 13 15 16 17 19 24 26 27 29 30 31 31 30 32 33 31 30 29 26 25 25 23 22 25 27 28 28
22 22 22 21 20 18 16 16 17 18 17 16 17 18 19 20 21 20 18 18 19 19 19 19 19 20 22 21 20 20 20 20 21 19 15 13 12 13 14 15 19 24 26 27 28 28 29 30 31 33 33 31 31 31 30 28 28 25 24 26 28 29 29
21 21 21 21 20 19 17 16 16 17 17 16 16 18 20 22 22 20 18 18 19 19 19 19 18 19 21 21 21 21 21 22 22 20 19 17 13 11 13 14 18 22 25 27 27 27 27 29 30 32 33 32 31 33 34 32 29 27 26 27 28 30 31
21 20 21 21 20 19 17 16 16 16 15 15 16 17 20 21 21 21 20 19 18 18 18 18 17 17 19 21 21 21 21 22 20 19 21 20 15 12 12 12 14 18 22 26 28 28 28 29 30 32 34 34 34 35 36 36 32 29 28 29 29 30 31
20 19 20 21 21 19 18 18 17 16 15 14 15 17 20 21 21 21 21 20 19 19 19 18 16 15 17 20 20 20 20 20 18 17 19 21 18 15 12 11 12 15 18 23 26 28 29 30 32 33 34 34 34 35 37 39 37 33 31 29 29 29 30
20 19 20 21 21 20 20 20 19 17 16 15 15 17 19 21 22 22 23 22 22 21 20 19 17 15 16 19 20 20 18 17 17 17 18 18 18 17 14 12 12 13 15 19 24 27 28 30 31 33 33 33 33 33 34 36 37 37 34 31 29 28 30
19 19 20 21 21 21 21 21 21 19 17 16 15 16 18 20 22 23 23 24 24 23 22 21 19 16 16 17 20 21 21 20 20 20 19 18 19 19 18 15 13 13 14 17 21 24 26 27 29 30 30 29 28 29 30 32 34 36 35 33 30 29 29
19 19 20 21 21 22 22 22 22 21 19 17 16 16 17 18 20 22 23 24 24 24 23 23 22 20 18 17 19 22 23 24 23 21 20 19 19 19 19 16 13 13 15 15 17 20 23 24 26 26 25 23 23 25 28 31 32 34 35 33 30 29 29
18 19 19 20 21 22 22 23 22 21 20 19 18 17 18 18 19 21 22 23 23 23 24 24 24 23 21 19 19 21 23 24 24 22 20 19 18 19 19 16 14 14 14 14 14 16 20 22 23 22 22 21 22 24 26 28 30 32 33 32 30 28 28
18 18 19 19 20 20 21 22 23 23 22 22 21 20 19 19 20 21 22 22 22 22 23 24 25 24 23 22 20 20 22 23 24 24 22 20 20 20 19 17 15 15 14 14 14 15 19 22 23 23 23 24 26 27 28 28 29 31 30 29 28 28 28
18 18 18 18 18 19 21 22 24 24 24 24 23 22 21 21 21 21 21 21 21 22 23 24 24 25 25 24 22 20 21 22 24 24 24 23 22 22 21 19 17 16 16 16 16 16 20 24 26 27 26 27 28 29 29 29 29 29 28 27 28 29 29
18 18 18 17 18 20 22 23 24 24 25 24 24 23 22 22 22 21 21 21 21 22 23 24 24 25 26 26 24 21 20 20 21 22 24 25 25 25 23 22 21 19 18 17 18 18 20 24 28 29 29 29 29 28 28 28 29 29 28 28 29 29 29
17 18 18 18 19 21 22 23 23 23 24 24 23 23 23 23 22 20 20 20 21 22 22 22 23 25 25 25 23 22 20 19 19 20 22 23 24 24 24 24 23 23 22 21 20 20 21 23 27 30 31 31 30 29 27 27 28 29 29 29 29 28 28
15 17 18 20 20 20 21 22 22 22 23 23 22 22 23 23 22 20 19 19 20 21 21 21 22 23 23 23 22 21 20 19 18 19 20 21 21 22 23 24 25 25 25 24 24 23 23 24 25 28 30 31 32 31 29 28 28 29 29 29 29 28 28
15 15 17 18 19 19 20 20 21 22 22 22 22 22 23 23 21 19 18 19 19 19 19 19 20 21 21 20 20 20 19 19 18 18 19 20 21 21 22 23 25 26 27 28 27 27 26 26 26 27 28 29 31 32 32 32 31 29 28 29 29 29 29
14 15 15 16 16 16 16 17 18 19 20 20 21 21 22 21 19 18 17 18 18 18 18 18 19 19 19 19 19 19 19 19 18 18 18 18 19 20 21 22 23 25 27 28 29 30 30 30 30 29 29 29 29 30 32 34 34 32 31 30 30 29 29
13 13 15 16 15 14 14 14 15 16 16 17 17 18 18 18 18 16 16 17 17 18 18 17 17 17 18 18 18 18 18 19 18 18 18 18 18 19 20 20 21 22 23 25 27 29 31 32 33 33 33 32 31 31 32 34 34 35 36 34 31 30 29
12 12 13 15 16 15 14 14 14 14 14 14 14 15 16 16 16 15 15 16 17 17 17 16 16 16 16 16 17 17 17 18 19 19 19 19 19 19 19 20 20 20 21 22 23 25 27 29 31 32 33 33 34 34 34 35 35 36 38 37 34 32 30
13 12 12 13 15 15 14 14 13 13 12 12 12 13 14 14 14 14 15 15 16 17 16 16 15 15 16 16 16 16 16 17 17 18 19 19 19 19 19 19 19 20 20 21 21 22 23 24 26 27 29 30 32 33 34 35 37 37 38 37 36 35 33
Wind_Direction
298 301 305 310 315 318 322 323 325 328 329 327 326 329 330 323 311 295 277 261 252 248 244 241 239 238 239 240 240 239 239 239 240 242 244 245 246 247 247 247 247 248 247 243 238 234 230 227 224 221 222 225 228 229 230 230 230 231 232 232 231 231 231
295 297 301 305 310 314 317 320 321 324 328 328 325 326 330 330 324 313 295 273 257 249 244 240 236 237 237 238 239 238 238 239 240 242 244 245 247 247 247 247 248 249 249 247 243 237 233 231 229 226 223 223 225 227 228 230 230 231 231 232 232 232 232
293 295 298 302 306 311 314 317 318 320 324 327 325 323 326 330 330 325 314 295 269 252 244 239 235 234 235 236 238 239 240 242 243 243 244 245 246 247 248 247 247 249 250 249 247 242 237 233 232 230 227 225 226 227 227 229 230 231 231 231 232 232 232
293 294 296 300 303 307 311 314 315 316 319 324 325 321 320 326 330 328 321 307 286 262 247 238 232 230 231 233 237 241 244 247 248 247 246 246 246 247 248 248 248 248 249 249 248 246 242 238 235 233 230 228 229 229 230 231 231 232 232 232 232 232 232
292 293 294 297 300 304 308 311 312 313 315 319 323 321 316 319 327 328 322 310 292 271 253 241 234 232 232 234 237 242 246 250 252 252 250 248 246 245 246 247 247 248 248 249 249 247 245 241 239 237 234 231 230 230 232 233 234 234 234 234 233 233 232
291 292 294 295 298 301 305 309 310 309 311 315 320 319 312 310 317 323 321 312 298 279 263 251 242 238 237 237 238 241 244 248 252 254 254 252 248 245 244 245 246 247 247 248 248 249 247 244 242 241 239 237 235 233 232 233 234 235 236 236 236 235 234
288 291 293 294 296 299 302 306 307 306 309 313 317 316 308 303 306 313 316 312 301 285 271 260 251 246 243 242 241 241 243 245 247 250 253 253 250 246 242 242 242 243 245 245 246 247 248 247 244 242 241 240 240 238 235 233 233 234 235 236 237 237 236
286 288 290 292 294 296 299 304 305 304 309 314 315 312 304 296 294 300 306 308 303 293 281 271 261 255 249 246 245 243 243 244 245 246 248 249 249 246 242 240 239 239 240 241 242 242 244 246 244 243 242 242 242 242 239 236 235 235 235 235 237 237 238
286 286 287 289 292 294 298 301 302 304 310 314 312 308 303 294 288 288 292 296 296 293 287 279 271 264 257 252 249 247 246 245 245 244 244 244 245 244 242 241 239 238 238 238 239 240 241 243 244 244 243 242 242 241 239 237 236 236 235 235 237 238 238
286 286 286 287 289 292 297 299 301 306 311 312 309 306 301 294 286 283 283 285 287 287 287 283 275 271 267 261 256 252 250 248 247 246 243 241 241 241 242 242 241 240 240 239 240 240 241 242 242 241 239 238 238 237 235 233 234 235 234 234 236 237 237
284 285 286 286 287 290 295 297 300 306 310 309 308 307 302 294 283 277 275 276 279 281 284 283 277 274 273 271 267 261 256 253 251 249 247 243 241 240 240 241 240 240 240 241 241 240 239 240 240 238 236 235 235 235 233 232 232 233 233 232 234 234 234
282 283 284 284 285 288 293 295 298 304 308 308 308 308 304 298 286 273 268 269 273 276 279 281 279 278 279 278 273 268 265 262 256 253 250 248 246 243 242 241 240 239 238 240 242 242 241 241 239 238 237 235 231 230 232 233 233 232 232 232 233 233 232
279 280 281 282 283 286 289 292 296 302 306 306 307 305 303 303 299 288 273 264 265 267 271 274 275 276 278 278 275 273 270 265 260 257 254 252 251 248 246 245 243 240 238 238 240 241 241 241 240 238 236 230 224 225 229 232 234 234 233 233 233 234 233
277 277 278 280 281 282 286 289 293 298 302 302 300 297 300 307 308 300 289 274 262 257 260 263 266 269 272 273 274 276 273 266 261 260 258 256 255 253 250 248 246 243 241 239 238 237 237 236 236 237 233 223 216 220 224 225 229 231 232 234 234 234 234
275 274 274 276 277 278 281 285 288 293 295 288 281 283 295 303 299 292 286 281 271 259 254 254 257 262 265 267 270 273 274 269 263 260 260 261 262 261 257 252 248 246 244 241 240 238 237 233 230 231 229 219 211 215 218 217 219 223 227 233 234 233 231
274 271 271 272 273 273 275 279 283 287 283 272 266 271 284 288 286 285 282 278 275 270 263 256 255 256 258 261 265 269 271 268 263 263 265 265 266 267 265 258 252 248 245 242 241 240 239 237 231 228 225 215 209 212 213 213 216 218 220 225 231 233 231
276 270 267 268 269 268 267 272 278 281 278 268 258 257 263 270 279 284 282 275 272 270 267 261 257 255 253 255 259 263 265 263 262 265 267 268 270 270 268 264 257 250 245 242 241 238 236 236 231 226 222 214 209 210 210 211 214 217 220 224 229 233 233
278 270 264 263 265 264 261 265 272 276 276 268 256 255 263 271 280 286 283 276 276 278 276 273 267 260 255 252 251 255 257 261 266 269 267 269 276 280 277 268 257 249 243 240 239 236 233 231 224 220 218 214 209 207 206 212 219 222 224 227 228 232 235
277 269 262 260 262 262 259 260 266 270 272 269 263 265 272 276 281 286 284 280 281 285 285 282 275 268 262 255 248 246 249 257 266 272 274 275 283 294 290 271 253 246 241 238 236 233 232 230 222 217 216 215 211 204 202 214 226 228 227 228 229 230 234
276 266 259 257 258 258 256 257 261 264 267 269 270 272 275 276 281 285 286 284 284 284 283 279 273 268 265 259 251 244 245 252 262 272 280 282 288 301 296 275 257 248 241 236 233 230 229 228 223 218 217 217 213 206 203 212 224 227 227 231 233 233 235
276 263 254 253 254 254 254 255 258 262 266 270 270 271 272 274 280 283 285 286 286 286 286 283 275 268 263 259 254 247 245 249 257 268 277 280 284 291 290 285 275 260 246 237 232 228 226 224 221 220 218 216 214 210 207 211 219 224 227 232 236 238 240
276 262 250 248 250 250 250 253 256 261 268 272 272 271 273 277 281 283 284 286 286 288 290 290 284 272 260 255 252 247 246 251 256 262 269 275 279 279 281 291 293 274 253 241 234 229 227 225 223 221 219 217 216 213 211 212 217 223 228 234 239 242 244
275 262 249 245 245 247 248 251 256 260 266 272 274 275 276 278 281 283 285 285 285 287 289 291 289 279 264 255 249 242 242 248 250 250 253 262 271 276 277 283 289 281 259 243 235 231 227 226 224 222 221 220 219 217 215 217 221 225 230 236 242 245 246
274 261 250 243 242 245 248 251 256 260 263 268 273 277 278 279 281 282 284 284 283 283 284 286 288 283 271 260 250 242 238 238 240 240 240 246 257 267 270 271 278 285 272 248 236 232 230 226 223 221 221 221 221 221 221 223 226 228 231 236 241 243 245
273 261 251 243 241 244 248 252 257 260 263 266 271 276 279 280 281 281 280 281 281 280 279 280 283 285 279 267 255 246 240 239 241 243 242 243 248 258 262 261 267 280 278 256 240 237 233 226 220 218 219 221 222 223 224 226 227 229 231 236 241 243 245
273 262 251 244 242 244 249 254 258 261 264 267 270 274 277 280 281 281 280 279 278 276 274 273 276 280 280 272 261 251 245 242 243 244 244 244 246 251 255 254 253 261 268 259 244 239 233 223 215 215 219 221 221 222 223 226 228 229 232 237 242 244 244
274 265 254 247 243 242 246 253 258 261 265 267 270 273 276 278 279 278 278 279 278 274 271 269 270 274 278 276 267 256 249 244 242 241 241 242 244 247 251 252 248 247 250 248 240 234 227 217 212 213 216 217 219 222 223 226 229 230 233 238 241 242 242
274 269 262 255 248 243 244 249 256 260 263 266 269 272 274 275 275 276 277 279 277 272 269 267 267 269 273 275 270 260 252 247 244 242 241 240 241 243 246 250 250 247 243 240 236 230 224 217 214 215 216 217 221 224 225 227 230 232 234 237 239 241 243
273 273 270 263 256 251 250 251 255 259 261 263 264 267 270 270 271 274 277 278 274 269 266 265 265 264 265 267 266 260 254 250 246 244 242 240 240 242 243 245 248 249 247 242 238 233 226 221 219 220 221 223 226 227 228 230 233 235 237 237 239 242 245
274 275 273 266 260 258 257 256 256 257 259 261 262 264 267 268 270 274 276 273 268 265 262 261 260 258 257 258 258 256 254 252 249 245 243 240 240 241 242 243 245 247 248 247 244 241 235 228 225 224 225 228 230 231 232 235 237 237 237 238 241 244 245
282 278 273 270 267 265 263 263 262 261 261 262 264 267 268 270 273 276 273 268 264 261 258 254 252 251 251 251 251 250 249 250 250 249 247 245 243 243 244 245 245 247 248 248 248 246 243 239 235 231 230 230 231 231 230 231 233 233 235 238 239 240 241
294 288 281 278 276 272 269 267 266 266 267 267 268 271 273 275 277 276 272 268 264 259 255 251 248 248 247 246 245 244 244 245 247 249 249 248 247 246 246 245 245 246 247 248 249 249 249 247 244 241 238 235 235 233 231 231 229 227 229 235 236 237 238
298 297 294 290 287 283 280 275 271 270 270 270 271 273 274 276 276 273 270 267 263 258 254 250 248 248 247 244 242 241 241 242 244 246 249 249 249 250 249 248 247 246 246 246 247 249 250 250 250 249 246 242 239 237 235 235 231 224 223 228 232 233 235
298 301 302 302 300 299 295 290 284 280 276 273 272 272 273 275 276 273 269 265 260 255 252 249 248 248 246 244 242 240 239 241 242 244 247 249 251 252 253 253 253 252 249 248 246 245 246 246 247 248 248 246 243 239 236 235 232 227 224 225 226 228 232
301 302 304 306 307 307 305 300 294 289 283 277 273 272 273 275 275 273 268 262 255 251 249 249 251 251 248 246 243 241 241 242 242 243 245 248 249 251 251 252 253 253 252 251 249 247 246 244 244 244 244 244 244 241 237 234 233 230 228 227 225 226 228
300 302 303 303 305 307 307 303 298 292 285 277 271 270 273 275 275 272 265 258 253 249 247 249 251 252 251 249 245 243 243 243 244 245 246 247 249 250 250 251 252 253 253 253 253 251 249 247 246 245 243 242 241 240 238 235 232 231 231 229 227 228 230
Height
2903 2901 2900 2898 2896 2894 2892 2890 2888 2885 2882 2879 2877 2874 2871 2868 2865 2862 2861 2860 2860 2861 2861 2863 2864 2867 2870 2872 2875 2878 2881 2883 2886 2888 2890 2892 2893 2895 2896 2897 2897 2896 2900 2906 2912 2918 2924 2927 2929 2931 2934 2938 2941 2945 2948 2951 2954 2959 2963 2968 2971 2975 2979
2900 2898 2896 2895 2893 2891 2889 2887 2885 2882 2880 2877 2875 2872 2869 2866 2864 2861 2860 2858 2858 2858 2858 2859 2861 2863 2865 2868 2870 2873 2876 2879 2881 2883 2885 2886 2888 2889 2891 2892 2892 2891 2893 2895 2900 2907 2914 2919 2921 2924 2928 2931 2933 2937 2939 2941 2945 2949 2954 2958 2962 2967 2971
2897 2895 2893 2892 2890 2888 2886 2884 2882 2880 2877 2875 2873 2870 2868 2865 2863 2860 2859 2857 2857 2856 2856 2857 2859 2860 2862 2864 2866 2869 2871 2874 2876 2878 2880 2881 2882 2883 2885 2886 2886 2887 2887 2888 2890 2896 2903 2908 2911 2915 2921 2925 2926 2928 2931 2933 2936 2940 2944 2948 2953 2957 2962
2893 2892 2890 2888 2887 2885 2883 2881 2879 2877 2875 2873 2870 2868 2866 2864 2862 2859 2858 2857 2856 2855 2855 2856 2858 2859 2860 2862 2863 2865 2867 2869 2871 2872 2874 2875 2877 2878 2879 2880 2881 2881 2882 2882 2883 2887 2893 2898 2901 2905 2911 2916 2919 2921 2923 2926 2929 2932 2935 2939 2943 2947 2952
2890 2888 2887 2885 2883 2882 2880 2878 2877 2875 2872 2870 2868 2866 2864 2862 2861 2859 2857 2856 2855 2855 2855 2856 2857 2858 2859 2860 2861 2862 2864 2865 2866 2867 2868 2869 2871 2872 2873 2874 2876 2876 2877 2877 2877 2879 2884 2889 2892 2896 2901 2907 2910 2913 2916 2918 2922 2924 2927 2930 2934 2938 2943
2887 2885 2884 2882 2880 2879 2877 2875 2873 2872 2870 2868 2866 2864 2862 2861 2859 2858 2856 2855 2855 2854 2854 2855 2855 2856 2857 2857 2859 2860 2860 2861 2862 2862 2863 2864 2865 2867 2868 2868 2870 2871 2872 2872 2872 2874 2876 2880 2884 2888 2892 2897 2901 2905 2908 2911 2914 2917 2920 2922 2926 2929 2934
2883 2882 2880 2879 2877 2876 2874 2872 2870 2868 2867 2865 2863 2861 2860 2859 2858 2856 2855 2854 2853 2853 2853 2853 2853 2854 2854 2855 2856 2857 2857 2858 2859 2859 2859 2860 2860 2861 2862 2863 2864 2866 2866 2867 2868 2869 2870 2872 2877 2881 2884 2889 2893 2895 2898 2903 2906 2909 2913 2916 2918 2922 2925
2879 2878 2876 2875 2874 2873 2871 2869 2867 2865 2863 2862 2860 2859 2857 2856 2855 2855 2854 2853 2852 2851 2851 2850 2851 2851 2851 2852 2852 2853 2854 2854 2855 2855 2856 2856 2856 2857 2857 2857 2858 2860 2861 2862 2863 2864 2865 2866 2869 2873 2877 2882 2886 2887 2890 2896 2900 2902 2906 2909 2911 2913 2917
2875 2874 2873 2872 2870 2869 2867 2866 2864 2862 2860 2859 2857 2856 2855 2854 2853 2852 2852 2851 2850 2849 2849 2848 2848 2848 2848 2849 2849 2849 2850 2850 2851 2851 2852 2853 2853 2853 2853 2853 2854 2854 2855 2857 2857 2858 2860 2861 2863 2867 2872 2876 2879 2881 2885 2891 2893 2894 2897 2902 2904 2906 2911
2871 2869 2869 2868 2867 2866 2864 2862 2860 2858 2857 2856 2854 2853 2852 2851 2850 2849 2849 2849 2848 2848 2847 2846 2846 2846 2846 2846 2846 2846 2846 2847 2847 2847 2848 2849 2849 2849 2850 2850 2850 2851 2851 2852 2853 2854 2857 2858 2859 2864 2868 2871 2874 2877 2881 2884 2885 2887 2891 2896 2897 2900 2904
2867 2865 2864 2864 2864 2862 2861 2859 2857 2855 2854 2852 2851 2850 2850 2849 2848 2847 2846 2846 2846 2846 2845 2845 2844 2844 2844 2843 2843 2843 2843 2843 2843 2844 2844 2845 2845 2846 2846 2847 2847 2848 2848 2849 2850 2851 2853 2854 2857 2861 2865 2867 2870 2872 2875 2878 2880 2882 2886 2888 2889 2892 2898
2862 2861 2860 2860 2860 2859 2857 2855 2853 2852 2851 2850 2848 2847 2846 2845 2845 2845 2844 2844 2843 2843 2843 2843 2842 2842 2842 2841 2841 2841 2840 2840 2840 2840 2840 2840 2841 2841 2842 2843 2844 2845 2846 2846 2847 2849 2850 2852 2855 2858 2861 2864 2866 2868 2871 2873 2875 2877 2880 2882 2884 2887 2892
2858 2857 2856 2855 2856 2855 2854 2852 2850 2849 2848 2847 2846 2845 2843 2842 2842 2841 2842 2842 2841 2841 2840 2840 2840 2840 2840 2839 2839 2838 2838 2838 2838 2837 2837 2837 2837 2837 2838 2839 2840 2841 2842 2843 2844 2845 2847 2849 2852 2854 2857 2860 2863 2865 2867 2870 2872 2874 2876 2878 2880 2883 2888
2853 2853 2852 2851 2852 2852 2850 2848 2847 2846 2845 2844 2844 2842 2841 2840 2839 2838 2838 2838 2838 2838 2838 2837 2837 2837 2838 2837 2837 2836 2836 2836 2835 2835 2834 2834 2833 2834 2835 2835 2835 2836 2838 2838 2839 2840 2842 2846 2849 2850 2853 2857 2859 2861 2864 2866 2868 2871 2873 2874 2877 2881 2884
2849 2849 2848 2847 2848 2848 2847 2845 2844 2843 2843 2842 2841 2840 2839 2837 2836 2836 2835 2835 2835 2835 2835 2834 2834 2834 2835 2835 2834 2834 2834 2833 2833 2832 2832 2832 2831 2831 2831 2831 2832 2832 2833 2834 2835 2836 2839 2842 2844 2846 2850 2853 2856 2858 2861 2863 2865 2867 2870 2872 2874 2876 2877
2844 2844 2844 2843 2844 2844 2844 2842 2841 2841 2840 2840 2838 2837 2836 2835 2833 2832 2832 2832 2832 2831 2831 2831 2831 2831 2831 2831 2832 2832 2831 2831 2830 2830 2830 2830 2829 2829 2828 2828 2828 2829 2829 2830 2831 2833 2835 2838 2841 2844 2846 2850 2852 2854 2858 2860 2862 2864 2866 2868 2869 2870 2872
2840 2840 2840 2839 2840 2841 2841 2839 2838 2838 2837 2837 2835 2834 2832 2831 2830 2829 2829 2829 2828 2828 2828 2828 2827 2827 2827 2828 2828 2829 2829 2828 2827 2827 2827 2827 2827 2826 2825 2825 2826 2825 2825 2826 2827 2829 2831 2834 2838 2841 2843 2846 2848 2851 2855 2857 2858 2861 2863 2865 2866 2867 2869
2836 2835 2835 2835 2836 2836 2837 2836 2835 2835 2834 2833 2832 2830 2829 2828 2827 2827 2827 2826 2826 2825 2825 2825 2825 2824 2824 2824 2825 2826 2826 2825 2824 2824 2824 2824 2824 2823 2823 2823 2822 2821 2821 2822 2823 2825 2827 2830 2833 2836 2839 2842 2844 2847 2851 2853 2855 2858 2860 2861 2862 2864 2866
2831 2831 2831 2831 2832 2832 2833 2833 2832 2831 2831 2830 2828 2827 2826 2826 2825 2824 2824 2824 2824 2823 2823 2822 2822 2821 2821 2821 2822 2822 2822 2822 2821 2821 2821 2821 2821 2820 2820 2819 2818 2817 2818 2818 2819 2822 2824 2826 2829 2832 2835 2838 2840 2843 2846 2848 2851 2854 2856 2857 2859 2861 2862
2827 2827 2827 2827 2828 2828 2829 2830 2829 2828 2827 2827 2825 2825 2824 2823 2822 2822 2821 2821 2821 2820 2820 2819 2818 2818 2818 2818 2818 2819 2819 2819 2819 2818 2818 2818 2818 2818 2818 2816 2815 2814 2814 2815 2816 2818 2820 2823 2826 2829 2831 2834 2837 2839 2841 2844 2847 2850 2852 2853 2855 2857 2858
2823 2824 2823 2823 2824 2825 2825 2826 2826 2825 2824 2823 2823 2822 2821 2820 2819 2819 2818 2818 2818 2817 2816 2816 2815 2815 2815 2815 2815 2816 2816 2816 2817 2816 2815 2815 2815 2816 2816 2814 2813 2812 2812 2812 2814 2815 2817 2819 2822 2825 2827 2830 2833 2835 2837 2840 2842 2845 2848 2849 2851 2853 2855
2820 2820 2820 2820 2820 2821 2822 2822 2822 2821 2821 2820 2819 2819 2818 2817 2816 2816 2815 2815 2815 2814 2813 2813 2812 2812 2812 2811 2812 2812 2813 2813 2814 2814 2813 2812 2812 2813 2813 2812 2811 2810 2810 2810 2811 2812 2814 2816 2818 2821 2824 2826 2829 2832 2834 2836 2839 2842 2844 2846 2848 2849 2851
2816 2816 2816 2817 2817 2817 2818 2818 2818 2818 2817 2817 2816 2815 2815 2814 2813 2813 2812 2811 2811 2811 2811 2810 2810 2809 2809 2808 2809 2809 2810 2810 2811 2811 2810 2810 2809 2810 2810 2809 2808 2808 2808 2808 2808 2809 2811 2812 2815 2817 2820 2823 2826 2829 2832 2834 2836 2839 2841 2842 2844 2845 2847
2812 2813 2813 2813 2814 2814 2814 2815 2815 2815 2814 2814 2813 2812 2812 2811 2810 2809 2809 2808 2808 2808 2808 2807 2807 2807 2806 2806 2806 2806 2806 2806 2806 2806 2807 2807 2807 2807 2807 2806 2805 2805 2805 2805 2805 2806 2808 2810 2812 2815 2817 2821 2824 2827 2829 2831 2833 2835 2837 2838 2839 2841 2843
2809 2809 2810 2810 2811 2811 2811 2811 2811 2811 2811 2810 2810 2809 2808 2808 2807 2806 2805 2805 2805 2804 2804 2804 2804 2803 2803 2803 2803 2803 2803 2803 2803 2803 2804 2804 2804 2805 2804 2804 2803 2803 2803 2803 2803 2804 2806 2808 2810 2813 2816 2819 2821 2823 2825 2827 2829 2831 2832 2834 2836 2837 2839
2805 2806 2806 2807 2808 2808 2808 2808 2807 2807 2807 2807 2806 2806 2805 2804 2803 2803 2802 2802 2801 2801 2801 2800 2800 2800 2800 2800 2800 2799 2800 2800 2800 2800 2801 2801 2802 2802 2802 2802 2801 2801 2801 2801 2802 2803 2805 2807 2810 2812 2814 2816 2818 2819 2821 2823 2825 2827 2829 2831 2832 2834 2835
2802 2802 2803 2804 2805 2805 2805 2804 2804 2804 2803 2803 2802 2802 2801 2800 2800 2799 2798 2798 2798 2797 2797 2797 2796 2796 2796 2796 2796 2796 2796 2796 2796 2797 2798 2798 2799 2799 2799 2799 2799 2799 2800 2800 2800 2801 2803 2806 2808 2809 2811 2813 2814 2816 2818 2820 2822 2823 2825 2827 2829 2829 2831
2799 2799 2799 2801 2802 2802 2802 2801 2801 2800 2800 2799 2799 2798 2797 2797 2796 2795 2795 2794 2794 2793 2793 2793 2793 2793 2793 2793 2793 2793 2793 2793 2793 2794 2794 2795 2795 2796 2796 2796 2797 2797 2798 2798 2799 2800 2801 2803 2805 2806 2808 2810 2811 2813 2815 2817 2819 2820 2822 2824 2824 2825 2827
2796 2796 2797 2798 2798 2798 2798 2798 2797 2797 2796 2796 2795 2794 2793 2792 2792 2791 2791 2791 2790 2789 2789 2789 2789 2789 2790 2789 2789 2790 2790 2790 2790 2791 2791 2792 2792 2793 2793 2794 2794 2795 2795 2796 2797 2798 2799 2800 2802 2803 2805 2807 2808 2810 2812 2814 2815 2817 2818 2820 2820 2821 2823
2792 2792 2793 2794 2794 2794 2794 2794 2793 2793 2792 2792 2791 2790 2789 2788 2788 2788 2787 2787 2786 2785 2785 2785 2785 2786 2786 2786 2786 2786 2787 2787 2787 2788 2788 2789 2789 2790 2790 2791 2791 2792 2792 2793 2794 2795 2797 2798 2799 2800 2802 2803 2805 2807 2809 2811 2812 2813 2815 2816 2817 2818 2820
2789 2789 2789 2789 2789 2789 2789 2789 2789 2789 2788 2788 2787 2786 2784 2783 2784 2784 2783 2782 2782 2781 2781 2782 2782 2782 2782 2783 2783 2783 2783 2784 2784 2784 2785 2785 2786 2787 2787 2788 2788 2789 2789 2790 2791 2792 2793 2794 2796 2797 2798 2800 2801 2803 2805 2806 2808 2809 2811 2812 2814 2815 2817
2786 2786 2785 2785 2785 2785 2785 2785 2784 2784 2784 2783 2782 2781 2780 2779 2779 2779 2778 2778 2778 2778 2778 2778 2778 2779 2779 2779 2779 2780 2780 2780 2781 2781 2782 2782 2783 2783 2784 2785 2785 2786 2786 2787 2787 2788 2789 2791 2792 2793 2795 2796 2797 2799 2800 2802 2803 2805 2807 2809 2810 2812 2813
2782 2782 2782 2781 2781 2781 2780 2780 2780 2780 2779 2779 2778 2777 2776 2775 2775 2775 2774 2774 2774 2774 2774 2774 2775 2775 2775 2776 2776 2777 2777 2778 2778 2778 2779 2779 2780 2780 2781 2781 2782 2782 2783 2784 2784 2785 2786 2787 2788 2789 2790 2792 2793 2795 2796 2797 2799 2801 2803 2804 2806 2808 2810
2780 2779 2778 2778 2777 2777 2777 2776 2776 2776 2775 2775 2774 2773 2772 2772 2771 2771 2771 2771 2770 2770 2771 2771 2771 2772 2772 2773 2773 2774 2774 2775 2775 2776 2776 2776 2776 2777 2777 2778 2778 2779 2779 2780 2780 2781 2782 2782 2783 2784 2785 2787 2788 2790 2791 2793 2795 2796 2798 2800 2802 2804 2806
2777 2776 2776 2775 2774 2774 2774 2773 2773 2772 2772 2771 2771 2770 2769 2768 2768 2768 2767 2767 2767 2767 2768 2768 2768 2769 2769 2770 2770 2771 2772 2772 2772 2773 2773 2773 2773 2774 2774 2774 2775 2775 2776 2776 2776 2777 2777 2778 2779 2779 2780 2781 2783 2784 2786 2788 2790 2792 2794 2796 2798 2800 2802
2774 2774 2774 2773 2772 2772 2771 2771 2770 2770 2769 2769 2768 2767 2766 2766 2765 2764 2764 2764 2764 2765 2765 2765 2766 2766 2766 2767 2768 2768 2769 2769 2769 2770 2770 2770 2770 2771 2771 2771 2772 2772 2772 2772 2772 2773 2773 2774 2774 2775 2775 2776 2777 2779 2780 2782 2785 2787 2789 2791 2794 2796 2798